Location: Clanezzo
(45.7500°N, 9.6000°E)
Time: 16:18:42
(UTC+00:00)

Envisat - Pass Details

Date: 22 January 2022
Orbit: 764 x 765 km, 98.2° (Epoch: 19 May)

Event Time Altitude Azimuth Distance (km) Brightness Sun altitude
Rises 03:26:04 0° 23° (NNE) 3,240 6.6 -36.0°
Reaches altitude 10° 03:28:41 10° 35° (NE) 2,309 5.9 -35.5°
Maximum altitude 03:33:03 28° 94° (E) 1,399 4.8 -34.7°
Drops below altitude 10° 03:37:24 10° 153° (SSE) 2,296 5.6 -34.0°
Sets 03:39:59 0° 165° (SSE) 3,217 6.3 -33.5°
